Regional Weather Roundup
Issued by NWS Burlington, VT

Home | Current Version | Previous Version | Text Only | Print | Product List | Glossary On
Versions: 1 2 3 4 5 6 7 8 9 10 11 12 13 14 15 16 17 18 19 20 21 22 23 24 25 26 27 28 29 30 31 32 33 34 35 36 37 38 39 40 41 42 43 44 45 46 47 48 49 50
856
ASUS41 KBTV 240510
RWRBTV
VERMONT REGIONAL WEATHER ROUNDUP
NATIONAL WEATHER SERVICE BURLINGTON VT
100 AM EDT WED MAY 24 2017

NOTE: "FAIR" INDICATES FEW OR NO CLOUDS BELOW 12,000 FEET WITH NO
SIGNIFICANT WEATHER AND/OR OBSTRUCTIONS TO VISIBILITY.

* THESE REPORTS ARE NOT UNDER NWS QUALITY CONTROL AND/OR DO NOT
  REPORT WEATHER SUCH AS PRECIPITATION AND FOG.

VTZ001>019-240600-
_____VERMONT_____


CITY           SKY/WX    TMP DP  RH WIND       PRES   REMARKS
BURLINGTON     PTCLDY    57  53  86 CALM      29.79F
MONTPELIER     CLOUDY    50  49  96 CALM      29.85F
MORRISVILLE    PTCLDY    51  49  92 CALM      29.83F
ST. JOHNSBURY*   N/A     53  51  93 MISG      29.81F
LYNDONVILLE*   CLOUDY    53  50  87 CALM      29.84F
MIDDLEBURY*    FAIR      55  50  85 SE3       29.80F
RUTLAND*       CLOUDY    53  49  86 SE6       29.81F
SPRINGFIELD    CLOUDY    51  48  89 CALM      29.82F
HIGHGATE*      FAIR      54  52  93 SE3       29.78F FOG
NEWPORT*       FAIR      50  48  94 CALM      29.82F
BENNINGTON     CLOUDY    51  48  89 CALM      29.80F
SUTTON*          N/A     54 N/A N/A MISG        N/A

_____LAKE CHAMPLAIN_____


CITY           SKY/WX    TMP DP  RH WIND       PRES   REMARKS
BURTON ISLAND*   N/A     55  54  94 S2          N/A
COLCHESTER RF*   N/A     57  54  88 S5          N/A
DIAMOND ISL*     N/A     57  54  88 N3          N/A

$$

NYZ007-026>031-035-052-083-087-240600-
_____NORTHERN NEW YORK_____


CITY           SKY/WX    TMP DP  RH WIND       PRES   REMARKS
PLATTSBURGH    CLOUDY    53  52  96 CALM      29.78F
SARANAC LAKE   CLOUDY    45  45 100 CALM      29.80F
MASSENA        PTCLDY    50  48  93 CALM      29.78F
OGDENSBURG*    FAIR      52  51  94 CALM      29.77F
POTSDAM*       CLEAR     54  52  94 CALM      29.78F
WATERTOWN      CLEAR     49  49 100 NE3       29.76F
FT DRUM        CLEAR     55  50  82 SE9       29.77F
ALBANY         CLOUDY    57  50  77 CALM      29.79F

$$
NHZ002-005-011-240600-
_____NEW HAMPSHIRE_____


CITY           SKY/WX    TMP DP  RH WIND       PRES   REMARKS
LEBANON        CLOUDY    53  51  93 CALM      29.81F
KEENE          PTCLDY    51  50  96 CALM      29.82F
MT WASHINGTON  FOG       39  39 100 NW26        N/A  VSB 1/8 WCI  28
PLYMOUTH       FAIR      49  48  95 CALM      29.82F
WHITEFIELD     CLOUDY    52  47  83 CALM      29.83F

$$

_____REGIONAL QUEBEC LOCATIONS_____


CITY           SKY/WX    TMP DP  RH WIND       PRES   REMARKS
MONTREAL       PTCLDY    57  48  72 CALM      29.78F
QUEBEC CITY    PTCLDY    52  48  87 NE9       29.79R
SHERBROOKE     PTCLDY    48  46  93 E3        29.81F

_____REGIONAL ONTARIO LOCATIONS_____


CITY           SKY/WX    TMP DP  RH WIND       PRES   REMARKS
OTTAWA         PTCLDY    54  52  94 SW5       29.75F

______KEY______
VSB  - VISIBILITY IN MILES
WCI  - WIND CHILL INDEX
HX   - HEAT INDEX
$$
NNNN




USA.gov is the U.S. government's official web portal to all federal, state and local government web resources and services.